GFSFLT2_prec_pwat_033.txt.gz
Precipitable_Water
0.83 0.81 0.80 0.85 0.87 0.89 0.87 0.81 0.74 0.69 0.67 0.67 0.67 0.66 0.65 0.60 0.54 0.51 0.48 0.47 0.46 0.46 0.46 0.47 0.48 0.48 0.49
0.83 0.82 0.82 0.83 0.83 0.80 0.75 0.71 0.69 0.66 0.63 0.61 0.57 0.54 0.50 0.46 0.44 0.43 0.43 0.43 0.43 0.43 0.43 0.44 0.43 0.43 0.42
0.77 0.79 0.78 0.77 0.71 0.71 0.69 0.63 0.59 0.54 0.50 0.44 0.40 0.38 0.37 0.38 0.40 0.39 0.38 0.38 0.38 0.37 0.37 0.37 0.37 0.37 0.38
0.71 0.69 0.71 0.68 0.63 0.56 0.48 0.46 0.39 0.36 0.34 0.32 0.30 0.29 0.30 0.31 0.30 0.30 0.31 0.31 0.32 0.33 0.33 0.33 0.33 0.33 0.34
0.68 0.64 0.57 0.50 0.43 0.37 0.31 0.28 0.26 0.25 0.23 0.22 0.21 0.23 0.24 0.25 0.25 0.26 0.26 0.27 0.29 0.30 0.31 0.32 0.33 0.34 0.34
0.47 0.41 0.35 0.28 0.28 0.27 0.24 0.20 0.16 0.20 0.19 0.17 0.22 0.21 0.23 0.24 0.25 0.27 0.28 0.30 0.31 0.32 0.33 0.34 0.34 0.34 0.35
0.30 0.25 0.24 0.23 0.23 0.20 0.18 0.18 0.17 0.19 0.21 0.18 0.23 0.22 0.25 0.26 0.28 0.30 0.31 0.32 0.32 0.32 0.33 0.33 0.34 0.35 0.36
0.24 0.23 0.23 0.23 0.22 0.21 0.20 0.19 0.20 0.23 0.25 0.19 0.25 0.25 0.28 0.29 0.29 0.30 0.30 0.31 0.32 0.32 0.33 0.35 0.36 0.37 0.37
0.22 0.20 0.20 0.21 0.21 0.20 0.18 0.19 0.19 0.22 0.26 0.25 0.25 0.25 0.27 0.26 0.27 0.28 0.30 0.31 0.32 0.33 0.34 0.35 0.35 0.36 0.36
0.19 0.19 0.18 0.18 0.20 0.23 0.23 0.22 0.23 0.22 0.27 0.25 0.26 0.26 0.22 0.26 0.27 0.29 0.29 0.31 0.32 0.33 0.33 0.34 0.35 0.35 0.34
0.16 0.16 0.18 0.22 0.24 0.26 0.27 0.27 0.25 0.25 0.29 0.29 0.28 0.28 0.26 0.24 0.26 0.28 0.29 0.29 0.29 0.29 0.30 0.31 0.33 0.35 0.35
0.17 0.19 0.22 0.25 0.28 0.29 0.31 0.31 0.32 0.30 0.32 0.32 0.28 0.28 0.26 0.24 0.22 0.26 0.29 0.31 0.30 0.28 0.30 0.33 0.36 0.38 0.39
0.20 0.23 0.26 0.28 0.29 0.29 0.31 0.32 0.32 0.32 0.33 0.33 0.32 0.30 0.29 0.25 0.24 0.26 0.27 0.27 0.27 0.28 0.30 0.34 0.36 0.37 0.37
0.23 0.25 0.27 0.28 0.28 0.30 0.29 0.29 0.28 0.29 0.33 0.34 0.34 0.32 0.28 0.29 0.29 0.27 0.27 0.23 0.26 0.28 0.32 0.36 0.37 0.39 0.39
0.27 0.27 0.28 0.28 0.29 0.30 0.29 0.29 0.27 0.27 0.28 0.31 0.34 0.34 0.33 0.32 0.28 0.27 0.24 0.25 0.28 0.29 0.33 0.35 0.37 0.39 0.39
0.29 0.29 0.29 0.28 0.28 0.29 0.29 0.28 0.27 0.28 0.28 0.30 0.31 0.30 0.30 0.32 0.33 0.25 0.27 0.27 0.28 0.30 0.36 0.35 0.36 0.39 0.40
0.30 0.30 0.30 0.30 0.29 0.28 0.28 0.28 0.28 0.29 0.29 0.31 0.31 0.29 0.25 0.22 0.27 0.31 0.27 0.27 0.28 0.29 0.35 0.36 0.36 0.37 0.40

GFSFLT2_prec_pwat_036.txt.gz
Precipitable_Water
0.93 0.94 0.91 0.91 0.91 0.90 0.86 0.87 0.85 0.84 0.79 0.76 0.73 0.71 0.70 0.65 0.61 0.58 0.55 0.53 0.53 0.54 0.54 0.55 0.54 0.54 0.55
0.87 0.86 0.86 0.86 0.84 0.83 0.81 0.80 0.75 0.73 0.72 0.69 0.64 0.58 0.52 0.46 0.43 0.42 0.43 0.44 0.45 0.45 0.46 0.46 0.47 0.48 0.50
0.78 0.82 0.80 0.81 0.79 0.78 0.75 0.73 0.68 0.64 0.57 0.50 0.42 0.37 0.35 0.33 0.32 0.32 0.33 0.33 0.34 0.35 0.35 0.36 0.36 0.37 0.38
0.75 0.73 0.74 0.75 0.70 0.59 0.54 0.52 0.45 0.37 0.33 0.30 0.27 0.27 0.25 0.26 0.26 0.27 0.28 0.28 0.29 0.30 0.31 0.31 0.31 0.32 0.33
0.66 0.66 0.62 0.54 0.47 0.41 0.30 0.26 0.25 0.24 0.21 0.18 0.19 0.19 0.20 0.22 0.23 0.23 0.25 0.28 0.29 0.30 0.31 0.32 0.33 0.34 0.35
0.59 0.48 0.38 0.31 0.25 0.23 0.22 0.18 0.14 0.19 0.17 0.15 0.20 0.20 0.22 0.24 0.25 0.28 0.30 0.31 0.33 0.34 0.34 0.35 0.35 0.35 0.35
0.35 0.27 0.22 0.22 0.21 0.19 0.18 0.16 0.15 0.18 0.20 0.18 0.23 0.22 0.25 0.27 0.28 0.30 0.31 0.32 0.32 0.33 0.33 0.34 0.34 0.35 0.35
0.24 0.22 0.22 0.22 0.21 0.20 0.19 0.18 0.20 0.22 0.23 0.19 0.24 0.23 0.26 0.28 0.29 0.29 0.30 0.31 0.31 0.32 0.33 0.34 0.35 0.35 0.36
0.22 0.20 0.20 0.21 0.21 0.20 0.17 0.18 0.18 0.21 0.25 0.24 0.24 0.24 0.25 0.26 0.28 0.29 0.30 0.31 0.30 0.31 0.32 0.34 0.35 0.36 0.36
0.16 0.18 0.18 0.18 0.20 0.22 0.22 0.20 0.21 0.21 0.26 0.24 0.24 0.25 0.21 0.27 0.27 0.28 0.29 0.29 0.29 0.30 0.32 0.33 0.33 0.33 0.32
0.16 0.16 0.17 0.20 0.22 0.25 0.26 0.25 0.23 0.23 0.28 0.28 0.26 0.26 0.25 0.23 0.26 0.27 0.28 0.28 0.29 0.31 0.31 0.31 0.30 0.31 0.30
0.15 0.17 0.20 0.23 0.26 0.28 0.30 0.30 0.31 0.29 0.31 0.31 0.27 0.26 0.25 0.24 0.22 0.26 0.28 0.30 0.30 0.29 0.27 0.28 0.29 0.30 0.33
0.19 0.22 0.25 0.26 0.28 0.28 0.30 0.31 0.32 0.32 0.32 0.32 0.30 0.30 0.29 0.26 0.24 0.26 0.26 0.28 0.28 0.25 0.26 0.27 0.27 0.29 0.32
0.23 0.25 0.27 0.28 0.28 0.29 0.28 0.29 0.28 0.28 0.32 0.33 0.33 0.32 0.29 0.29 0.29 0.27 0.29 0.26 0.26 0.27 0.28 0.27 0.28 0.32 0.36
0.25 0.27 0.28 0.29 0.29 0.31 0.30 0.29 0.27 0.27 0.27 0.31 0.34 0.33 0.33 0.32 0.28 0.29 0.28 0.27 0.27 0.27 0.28 0.25 0.27 0.33 0.38
0.27 0.28 0.28 0.29 0.29 0.30 0.31 0.29 0.28 0.28 0.28 0.30 0.31 0.30 0.31 0.32 0.34 0.29 0.30 0.28 0.27 0.29 0.30 0.26 0.25 0.32 0.39
0.28 0.29 0.30 0.30 0.30 0.30 0.30 0.30 0.29 0.29 0.29 0.31 0.31 0.29 0.25 0.22 0.28 0.32 0.29 0.29 0.27 0.27 0.29 0.28 0.26 0.30 0.38

GFSFLT2_prec_pwat_039.txt.gz
Precipitable_Water
0.89 0.90 0.89 0.91 0.92 0.92 0.92 0.89 0.89 0.89 0.90 0.88 0.84 0.79 0.77 0.76 0.72 0.68 0.62 0.58 0.54 0.53 0.52 0.52 0.53 0.54 0.55
0.82 0.84 0.83 0.87 0.87 0.84 0.84 0.86 0.85 0.84 0.80 0.77 0.76 0.72 0.68 0.61 0.55 0.52 0.48 0.45 0.43 0.42 0.42 0.42 0.42 0.43 0.43
0.76 0.81 0.81 0.82 0.79 0.80 0.80 0.80 0.76 0.71 0.67 0.63 0.54 0.47 0.40 0.35 0.33 0.33 0.34 0.33 0.33 0.32 0.33 0.33 0.34 0.35 0.36
0.74 0.73 0.75 0.77 0.75 0.70 0.65 0.63 0.54 0.46 0.37 0.30 0.29 0.26 0.24 0.24 0.25 0.26 0.26 0.26 0.27 0.28 0.29 0.30 0.30 0.31 0.32
0.69 0.68 0.67 0.66 0.63 0.57 0.42 0.31 0.25 0.25 0.22 0.20 0.19 0.18 0.19 0.21 0.22 0.23 0.24 0.27 0.29 0.31 0.32 0.33 0.34 0.35 0.36
0.63 0.59 0.57 0.47 0.34 0.25 0.21 0.18 0.14 0.21 0.17 0.16 0.19 0.19 0.22 0.24 0.25 0.28 0.29 0.31 0.32 0.33 0.34 0.34 0.34 0.34 0.34
0.47 0.37 0.30 0.24 0.22 0.19 0.18 0.17 0.16 0.19 0.20 0.17 0.21 0.21 0.24 0.26 0.27 0.29 0.30 0.31 0.32 0.33 0.33 0.33 0.34 0.34 0.34
0.26 0.23 0.22 0.23 0.23 0.22 0.20 0.19 0.19 0.20 0.22 0.17 0.23 0.22 0.25 0.26 0.28 0.29 0.30 0.31 0.32 0.32 0.32 0.32 0.33 0.34 0.34
0.24 0.22 0.21 0.22 0.23 0.21 0.17 0.17 0.17 0.20 0.24 0.23 0.23 0.23 0.24 0.25 0.27 0.29 0.30 0.31 0.31 0.31 0.31 0.31 0.32 0.32 0.33
0.18 0.17 0.17 0.17 0.18 0.20 0.21 0.19 0.20 0.20 0.26 0.23 0.23 0.24 0.21 0.26 0.27 0.28 0.28 0.29 0.30 0.30 0.31 0.32 0.32 0.32 0.31
0.14 0.14 0.15 0.18 0.22 0.24 0.25 0.25 0.23 0.23 0.27 0.27 0.25 0.25 0.24 0.23 0.26 0.28 0.28 0.28 0.29 0.30 0.31 0.30 0.30 0.31 0.28
0.14 0.16 0.20 0.23 0.25 0.27 0.28 0.29 0.29 0.28 0.30 0.30 0.26 0.26 0.24 0.23 0.22 0.27 0.28 0.30 0.31 0.30 0.29 0.28 0.28 0.29 0.30
0.18 0.21 0.23 0.25 0.27 0.28 0.29 0.30 0.30 0.31 0.32 0.32 0.30 0.29 0.28 0.25 0.24 0.26 0.27 0.29 0.31 0.30 0.29 0.27 0.27 0.29 0.27
0.22 0.24 0.26 0.27 0.27 0.29 0.28 0.29 0.28 0.29 0.32 0.33 0.32 0.31 0.28 0.28 0.28 0.26 0.29 0.27 0.30 0.31 0.30 0.28 0.28 0.31 0.29
0.23 0.24 0.25 0.27 0.28 0.30 0.30 0.29 0.28 0.27 0.28 0.31 0.33 0.33 0.32 0.31 0.27 0.29 0.29 0.29 0.30 0.30 0.30 0.27 0.26 0.29 0.30
0.24 0.25 0.25 0.26 0.28 0.30 0.31 0.30 0.29 0.29 0.29 0.31 0.31 0.30 0.30 0.31 0.34 0.30 0.31 0.30 0.29 0.29 0.30 0.26 0.24 0.28 0.31
0.24 0.25 0.26 0.27 0.28 0.29 0.30 0.30 0.30 0.30 0.31 0.32 0.31 0.29 0.25 0.23 0.30 0.34 0.30 0.29 0.28 0.27 0.28 0.26 0.25 0.27 0.30

GFSFLT2_prec_pwat_045.txt.gz
Precipitable_Water
0.71 0.78 0.79 0.79 0.82 0.86 0.86 0.86 0.88 0.88 0.90 0.90 0.89 0.89 0.89 0.88 0.88 0.87 0.87 0.86 0.86 0.85 0.82 0.78 0.76 0.75 0.74
0.62 0.70 0.75 0.77 0.78 0.78 0.78 0.81 0.83 0.84 0.85 0.85 0.86 0.86 0.86 0.85 0.83 0.81 0.81 0.79 0.71 0.67 0.65 0.63 0.60 0.59 0.58
0.61 0.68 0.70 0.71 0.73 0.75 0.75 0.77 0.80 0.82 0.82 0.82 0.82 0.81 0.80 0.79 0.75 0.68 0.58 0.48 0.42 0.39 0.36 0.34 0.34 0.37 0.38
0.61 0.61 0.63 0.64 0.69 0.68 0.67 0.71 0.71 0.73 0.73 0.72 0.70 0.67 0.64 0.53 0.42 0.33 0.29 0.27 0.28 0.28 0.29 0.30 0.30 0.31 0.33
0.62 0.59 0.58 0.61 0.61 0.65 0.63 0.63 0.61 0.62 0.58 0.53 0.41 0.30 0.24 0.21 0.19 0.19 0.21 0.24 0.26 0.28 0.30 0.33 0.34 0.36 0.36
0.50 0.50 0.51 0.49 0.49 0.45 0.41 0.33 0.26 0.27 0.21 0.18 0.18 0.16 0.15 0.17 0.19 0.22 0.25 0.27 0.30 0.32 0.33 0.34 0.35 0.35 0.36
0.39 0.37 0.32 0.29 0.26 0.21 0.20 0.18 0.16 0.19 0.19 0.13 0.15 0.14 0.19 0.22 0.24 0.26 0.28 0.30 0.32 0.33 0.34 0.34 0.35 0.35 0.35
0.22 0.22 0.22 0.23 0.22 0.21 0.20 0.20 0.19 0.18 0.18 0.13 0.19 0.19 0.23 0.24 0.26 0.27 0.28 0.30 0.31 0.33 0.33 0.33 0.33 0.33 0.33
0.25 0.25 0.25 0.25 0.25 0.22 0.18 0.16 0.13 0.14 0.20 0.20 0.21 0.22 0.23 0.24 0.26 0.29 0.31 0.32 0.32 0.31 0.31 0.31 0.31 0.31 0.31
0.21 0.21 0.21 0.20 0.19 0.19 0.17 0.13 0.15 0.16 0.22 0.21 0.21 0.22 0.19 0.24 0.25 0.27 0.28 0.29 0.29 0.29 0.30 0.30 0.31 0.31 0.30
0.18 0.16 0.16 0.16 0.18 0.19 0.20 0.20 0.19 0.19 0.24 0.25 0.24 0.24 0.24 0.23 0.25 0.27 0.28 0.28 0.28 0.29 0.29 0.30 0.31 0.32 0.30
0.15 0.15 0.15 0.16 0.20 0.22 0.23 0.25 0.25 0.25 0.27 0.28 0.25 0.25 0.24 0.23 0.23 0.27 0.28 0.29 0.30 0.29 0.30 0.30 0.31 0.32 0.33
0.17 0.18 0.20 0.23 0.24 0.24 0.25 0.27 0.27 0.29 0.30 0.30 0.29 0.29 0.28 0.26 0.25 0.27 0.28 0.30 0.31 0.30 0.30 0.30 0.30 0.31 0.29
0.21 0.23 0.24 0.24 0.24 0.25 0.25 0.26 0.25 0.27 0.30 0.31 0.31 0.30 0.28 0.30 0.29 0.28 0.31 0.28 0.31 0.32 0.32 0.32 0.33 0.33 0.32
0.23 0.23 0.24 0.24 0.24 0.25 0.25 0.25 0.24 0.24 0.26 0.30 0.32 0.32 0.31 0.31 0.28 0.31 0.31 0.32 0.33 0.33 0.32 0.30 0.32 0.33 0.33
0.24 0.24 0.23 0.23 0.23 0.24 0.25 0.25 0.24 0.25 0.26 0.29 0.30 0.29 0.30 0.31 0.34 0.31 0.32 0.32 0.34 0.34 0.33 0.30 0.29 0.33 0.33
0.23 0.23 0.23 0.23 0.23 0.24 0.24 0.24 0.24 0.25 0.27 0.29 0.29 0.28 0.25 0.23 0.29 0.34 0.31 0.32 0.32 0.31 0.32 0.31 0.29 0.30 0.31

GFSFLT2_prec_pwat_048.txt.gz
Precipitable_Water
0.59 0.61 0.62 0.65 0.71 0.78 0.85 0.86 0.86 0.86 0.86 0.88 0.87 0.86 0.88 0.87 0.87 0.88 0.88 0.88 0.88 0.87 0.89 0.89 0.87 0.87 0.85
0.57 0.60 0.63 0.66 0.66 0.69 0.76 0.82 0.81 0.83 0.83 0.82 0.83 0.83 0.84 0.84 0.85 0.86 0.86 0.85 0.84 0.81 0.80 0.76 0.74 0.73 0.72
0.54 0.62 0.61 0.62 0.60 0.63 0.66 0.73 0.76 0.79 0.79 0.80 0.81 0.81 0.81 0.82 0.81 0.82 0.80 0.78 0.73 0.66 0.59 0.55 0.51 0.50 0.48
0.52 0.52 0.56 0.60 0.61 0.61 0.61 0.66 0.66 0.69 0.72 0.73 0.73 0.73 0.74 0.73 0.70 0.66 0.58 0.49 0.41 0.35 0.31 0.30 0.30 0.31 0.33
0.46 0.46 0.46 0.47 0.46 0.47 0.45 0.47 0.47 0.48 0.50 0.51 0.51 0.48 0.41 0.35 0.29 0.24 0.20 0.19 0.21 0.24 0.27 0.29 0.31 0.34 0.35
0.40 0.39 0.38 0.38 0.37 0.35 0.31 0.27 0.22 0.26 0.21 0.19 0.21 0.18 0.18 0.17 0.16 0.18 0.21 0.24 0.26 0.29 0.31 0.34 0.35 0.35 0.35
0.27 0.25 0.23 0.23 0.22 0.21 0.20 0.19 0.17 0.20 0.19 0.14 0.16 0.14 0.17 0.18 0.20 0.23 0.26 0.28 0.29 0.31 0.33 0.34 0.34 0.35 0.35
0.23 0.24 0.24 0.25 0.24 0.23 0.22 0.21 0.20 0.19 0.18 0.11 0.16 0.15 0.19 0.22 0.24 0.25 0.27 0.28 0.29 0.31 0.32 0.34 0.34 0.34 0.34
0.28 0.27 0.27 0.27 0.26 0.23 0.19 0.16 0.14 0.14 0.18 0.17 0.18 0.19 0.21 0.22 0.24 0.28 0.28 0.30 0.31 0.32 0.32 0.32 0.32 0.32 0.32
0.22 0.20 0.19 0.19 0.19 0.19 0.17 0.13 0.13 0.14 0.20 0.19 0.20 0.21 0.18 0.23 0.24 0.26 0.26 0.29 0.30 0.30 0.30 0.31 0.31 0.30 0.28
0.18 0.17 0.18 0.19 0.19 0.20 0.21 0.20 0.18 0.19 0.23 0.24 0.23 0.24 0.23 0.22 0.25 0.27 0.27 0.27 0.27 0.28 0.29 0.29 0.30 0.31 0.28
0.17 0.17 0.18 0.19 0.21 0.23 0.25 0.25 0.26 0.25 0.27 0.27 0.24 0.25 0.24 0.23 0.22 0.27 0.28 0.29 0.28 0.28 0.29 0.30 0.31 0.32 0.33
0.20 0.21 0.24 0.25 0.26 0.26 0.27 0.28 0.28 0.29 0.30 0.29 0.28 0.27 0.27 0.25 0.24 0.25 0.27 0.29 0.31 0.29 0.29 0.30 0.30 0.31 0.29
0.25 0.27 0.27 0.27 0.26 0.27 0.25 0.26 0.26 0.26 0.29 0.30 0.30 0.29 0.27 0.27 0.27 0.26 0.29 0.27 0.31 0.32 0.32 0.32 0.32 0.33 0.33
0.27 0.27 0.27 0.27 0.26 0.27 0.26 0.25 0.24 0.24 0.25 0.28 0.29 0.30 0.30 0.29 0.26 0.28 0.28 0.29 0.31 0.32 0.32 0.31 0.33 0.34 0.34
0.27 0.27 0.26 0.26 0.25 0.25 0.26 0.26 0.25 0.25 0.24 0.26 0.27 0.27 0.27 0.29 0.30 0.27 0.28 0.28 0.31 0.32 0.33 0.30 0.30 0.34 0.35
0.26 0.25 0.25 0.24 0.24 0.25 0.25 0.24 0.23 0.24 0.26 0.28 0.28 0.26 0.22 0.21 0.26 0.31 0.28 0.29 0.29 0.28 0.30 0.30 0.28 0.30 0.33